AT627 Weather Reports


time (UTC)temp
C
wind
direction
speed
KPH
gust
KPH
rain 1hr
cm
rain 24hr
cm
rain mn
cm
humidity
%
barometer
mb
20260831231445 23 325 1.6 3.2 0.00 0.13 0.00 78 992.2
20260831230702 23 310 1.6 3.2 0.00 0.13 0.00 77 992.3
20260831230201 24 255 1.6 3.2 0.00 0.13 0.00 77 992.3
20260831225702 24 22 1.6 3.2 0.00 0.13 0.00 77 992.4
20260831225202 24 17 1.6 3.2 0.00 0.13 0.00 77 992.4
20260831224701 24 93 1.6 4.8 0.00 0.13 0.00 76 992.4
20260831224202 24 321 1.6 4.8 0.00 0.13 0.00 75 992.5
20260831223701 24 223 1.6 3.2 0.00 0.13 0.00 76 992.5
20260831223159 24 225 1.6 3.2 0.00 0.13 0.00 75 992.5
20260831222742 24 224 3.2 4.8 0.00 0.13 0.00 75 992.6
20260831222730 24 224 3.2 3.2 0.00 0.13 0.00 76 992.6
20260831221700 25 216 1.6 4.8 0.00 0.13 0.00 74 992.6
20260831221200 25 235 1.6 3.2 0.00 0.13 0.00 75 992.7
20260831220700 25 212 1.6 6.4 0.00 0.13 0.00 73 992.7
20260831220159 25 224 1.6 6.4 0.00 0.13 0.00 74 992.7
20260831215659 25 67 3.2 4.8 0.00 0.13 0.00 73 992.7
20260831215443 25 224 3.2 6.4 0.00 0.13 0.00 72 992.7
20260831214658 25 50 1.6 6.4 0.00 0.13 0.00 72 992.7
20260831214443 26 50 1.6 6.4 0.00 0.13 0.00 71 992.7
20260831213657 26 227 3.2 6.4 0.00 0.13 0.00 71 992.7
20260831213155 26 223 3.2 6.4 0.00 0.13 0.00 69 992.8
20260831212939 26 60 3.2 6.4 0.00 0.13 0.00 69 992.9
20260831212156 26 224 3.2 6.4 0.00 0.13 0.00 68 992.9
20260831211939 26 200 3.2 6.4 0.00 0.13 0.00 70 992.9
20260831211441 26 253 1.6 6.4 0.00 0.13 0.00 69 993.0
20260831210655 25 228 1.6 6.4 0.00 0.13 0.00 69 993.1
20260831210155 25 107 1.6 6.4 0.00 0.13 0.00 71 993.1
20260831205655 25 340 1.6 6.4 0.00 0.13 0.00 69 993.1
20260831205155 25 257 3.2 8.0 0.00 0.13 0.00 70 993.1
20260831204655 26 201 1.6 8.0 0.00 0.13 0.00 68 993.1
20260831204441 26 220 1.6 9.7 0.00 0.13 0.00 69 993.1
20260831203654 26 269 3.2 9.7 0.00 0.13 0.00 68 993.1
20260831203154 26 108 3.2 8.0 0.00 0.13 0.00 69 993.0
20260831202655 26 285 1.6 6.4 0.00 0.13 0.00 66 993.0
20260831202156 26 289 1.6 6.4 0.00 0.13 0.00 65 993.1
20260831201655 26 232 3.2 6.4 0.00 0.13 0.00 65 993.2
20260831201156 26 319 1.6 6.4 0.00 0.13 0.00 65 993.3
20260831200656 26 100 3.2 8.0 0.00 0.13 0.00 64 993.4
20260831200532 26 263 1.6 8.0 0.00 0.13 0.00 66 993.5
20260831200222 26 208 3.2 8.0 0.00 0.13 0.00 65 993.4
20260831195155 26 310 3.2 9.7 0.00 0.13 0.00 67 993.5
20260831194655 26 273 3.2 9.7 0.00 0.13 0.00 67 993.5
20260831194439 26 308 3.2 9.7 0.00 0.13 0.00 66 993.5
20260831193649 26 316 3.2 9.7 0.00 0.13 0.00 66 993.6
20260831193435 26 193 3.2 6.4 0.00 0.13 0.00 66 993.6
20260831192941 26 228 3.2 8.0 0.00 0.13 0.00 66 993.7
20260831192150 26 329 3.2 9.7 0.00 0.13 0.00 63 993.7
20260831191650 26 179 3.2 9.7 0.00 0.13 0.00 65 993.7
20260831191150 26 156 3.2 6.4 0.00 0.13 0.00 63 993.8
20260831190941 26 47 3.2 6.4 0.00 0.13 0.00 64 993.8
20260831190150 26 46 3.2 9.7 0.00 0.13 0.00 63 993.9
20260831185650 26 325 3.2 9.7 0.00 0.13 0.00 67 994.0
20260831185442 26 137 3.2 8.0 0.00 0.13 0.00 64 994.1
20260831184939 25 105 3.2 6.4 0.00 0.13 0.00 66 994.2
20260831184150 25 213 3.2 9.7 0.00 0.13 0.00 66 994.2
20260831183647 25 2 3.2 9.7 0.00 0.13 0.00 65 994.2
20260831183148 25 293 3.2 6.4 0.00 0.13 0.00 65 994.2
20260831182647 25 248 3.2 6.4 0.00 0.13 0.00 69 994.1
20260831182148 25 335 1.6 6.4 0.00 0.13 0.00 67 994.1
20260831181647 25 204 1.6 4.8 0.00 0.13 0.00 69 994.1
20260831181148 25 78 1.6 6.4 0.00 0.13 0.00 70 994.1
20260831180939 25 280 3.2 6.4 0.00 0.13 0.00 72 994.0
20260831180148 25 316 3.2 4.8 0.00 0.13 0.00 69 993.9
20260831175648 25 142 1.6 9.7 0.00 0.13 0.00 68 993.9
20260831175149 26 247 1.6 9.7 0.00 0.13 0.00 65 994.0
20260831174645 26 302 3.2 9.7 0.00 0.13 0.00 63 994.1
20260831174143 26 251 3.2 11.3 0.00 0.13 0.00 61 994.2
20260831173937 26 217 3.2 17.7 0.00 0.13 0.00 64 994.3
20260831173144 26 205 3.2 17.7 0.00 0.13 0.00 64 994.3
20260831172643 26 235 3.2 9.7 0.00 0.13 0.00 63 994.2
20260831172143 25 219 4.8 9.7 0.00 0.13 0.00 62 994.2
20260831171642 25 210 4.8 9.7 0.00 0.13 0.00 67 994.3
20260831171143 25 257 4.8 9.7 0.00 0.13 0.00 67 994.4
20260831170642 25 314 3.2 9.7 0.00 0.13 0.00 65 994.3
20260831170623 25 94 3.2 4.8 0.00 0.13 0.00 65 994.4
20260831165641 24 106 1.6 4.8 0.00 0.13 0.00 68 994.4
20260831165142 24 180 1.6 6.4 0.00 0.13 0.00 65 994.4
20260831164641 25 155 3.2 6.4 0.00 0.13 0.00 67 994.4
20260831164141 25 169 1.6 4.8 0.00 0.13 0.00 66 994.4
20260831163638 25 243 1.6 4.8 0.00 0.13 0.00 65 994.4
20260831163138 25 257 1.6 4.8 0.00 0.13 0.00 65 994.4
20260831162927 25 8 1.6 4.8 0.00 0.13 0.00 66 994.4
20260831162427 25 283 1.6 4.8 0.00 0.13 0.00 65 994.4
20260831161638 25 320 1.6 4.8 0.00 0.13 0.00 64 994.4
20260831161138 25 288 1.6 6.4 0.00 0.13 0.00 68 994.4
20260831160930 25 265 3.2 6.4 0.00 0.13 0.00 66 994.4
20260831160426 25 291 3.2 6.4 0.00 0.13 0.00 65 994.3
20260831155638 25 223 3.2 8.0 0.00 0.13 0.00 65 994.2
20260831155139 25 301 3.2 8.0 0.00 0.13 0.00 63 994.3
20260831154636 26 31 3.2 9.7 0.00 0.13 0.00 63 994.4
20260831154132 26 122 3.2 9.7 0.00 0.13 0.00 63 994.4
20260831153632 26 310 3.2 6.4 0.00 0.13 0.00 64 994.5
20260831153132 25 118 3.2 6.4 0.00 0.13 0.00 65 994.5
20260831152633 25 45 3.2 6.4 0.00 0.13 0.00 66 994.4
20260831152133 24 273 3.2 6.4 0.00 0.13 0.00 68 994.5
20260831151633 24 212 3.2 6.4 0.00 0.13 0.00 68 994.5
20260831151132 24 319 3.2 6.4 0.00 0.13 0.00 67 994.5
20260831150633 23 316 3.2 8.0 0.00 0.13 0.00 71 994.6
20260831150133 23 197 3.2 8.0 0.00 0.13 0.00 71 994.5
20260831145633 23 260 3.2 6.4 0.00 0.13 0.00 71 994.7
20260831145133 23 44 1.6 4.8 0.00 0.13 0.00 73 994.7
20260831144922 23 340 1.6 4.8 0.00 0.13 0.00 72 994.8
20260831144133 23 0 1.6 3.2 0.00 0.13 0.00 72 994.8
20260831143634 23 176 1.6 4.8 0.00 0.13 0.00 73 994.8
20260831143136 23 107 1.6 6.4 0.00 0.13 0.00 76 994.8
20260831142632 22 152 1.6 6.4 0.00 0.13 0.00 77 994.8
20260831142423 22 202 1.6 4.8 0.00 0.13 0.00 78 994.9
20260831141929 22 341 1.6 4.8 0.00 0.13 0.00 78 994.9
20260831141130 22 314 1.6 4.8 0.00 0.13 0.00 78 994.9
20260831140632 22 181 1.6 4.8 0.00 0.13 0.00 77 994.9
20260831140131 22 304 1.6 4.8 0.00 0.13 0.00 78 994.8
20260831135632 22 317 1.6 6.4 0.00 0.13 0.00 80 994.9
20260831135130 22 267 1.6 6.4 0.00 0.13 0.00 78 994.8
20260831134630 22 236 1.6 6.4 0.00 0.13 0.00 78 994.7
20260831134130 22 195 3.2 6.4 0.00 0.13 0.00 78 994.7
20260831133629 22 207 3.2 6.4 0.00 0.13 0.00 82 994.8
20260831133409 21 138 1.6 4.8 0.00 0.13 0.00 83 994.6
20260831132634 21 260 1.6 4.8 0.00 0.13 0.00 82 994.6
20260831132130 21 286 1.6 6.4 0.00 0.13 0.00 83 994.7
20260831131629 21 285 1.6 6.4 0.00 0.13 0.00 83 994.6
20260831131400 21 221 1.6 4.8 0.00 0.13 0.00 86 994.6
20260831130629 21 278 1.6 3.2 0.00 0.13 0.00 86 994.6
20260831130130 20 53 1.6 3.2 0.00 0.13 0.00 87 994.6
20260831125630 20 265 1.6 3.2 0.00 0.13 0.00 89 994.6
20260831125358 20 0 1.6 3.2 0.00 0.13 0.00 89 994.6
20260831124630 20 285 1.6 3.2 0.00 0.13 0.00 90 994.7
20260831124358 20 317 1.6 3.2 0.00 0.13 0.00 90 994.7
20260831123900 20 0 1.6 3.2 0.00 0.13 0.00 90 994.7
20260831123130 20 328 1.6 3.2 0.00 0.13 0.00 91 994.6
20260831122630 20 61 1.6 3.2 0.00 0.13 0.00 91 994.6
20260831122130 20 275 1.6 1.6 0.00 0.13 0.00 91 994.6
20260831121629 20 299 1.6 3.2 0.00 0.13 0.00 91 994.6
20260831121130 20 263 0.0 3.2 0.00 0.13 0.00 91 994.5
20260831120629 20 122 0.0 1.6 0.00 0.13 0.00 92 994.6
20260831120129 20 204 1.6 3.2 0.00 0.13 0.00 92 994.6
20260831115629 20 159 1.6 3.2 0.00 0.13 0.00 92 994.5
20260831115413 20 0 0.0 3.2 0.00 0.13 0.00 92 994.4
20260831114632 20 0 0.0 3.2 0.00 0.13 0.00 92 994.4
20260831114132 20 290 0.0 1.6 0.00 0.13 0.00 92 994.4
20260831113632 20 328 0.0 1.6 0.00 0.13 0.00 92 994.3
20260831113131 20 46 0.0 1.6 0.00 0.13 0.00 92 994.3
20260831112632 20 75 0.0 1.6 0.00 0.13 0.00 92 994.3
20260831112130 20 0 0.0 1.6 0.00 0.13 0.00 92 994.2
20260831111630 20 0 0.0 1.6 0.00 0.13 0.00 92 994.1
20260831111405 20 123 0.0 1.6 0.00 0.13 0.00 92 994.2
20260831110630 20 77 0.0 1.6 0.00 0.13 0.00 92 994.1
20260831110130 20 16 0.0 3.2 0.00 0.13 0.00 92 994.0
20260831105630 20 89 0.0 3.2 0.00 0.13 0.00 92 994.0
20260831105129 20 75 0.0 3.2 0.00 0.13 0.00 91 993.9
20260831104630 20 283 0.0 3.2 0.00 0.13 0.00 91 993.9
20260831104408 20 115 1.6 3.2 0.00 0.13 0.00 91 993.8
20260831103629 20 136 0.0 1.6 0.00 0.13 0.00 91 993.8
20260831103130 20 352 0.0 1.6 0.00 0.13 0.00 91 993.8
20260831102909 20 64 0.0 1.6 0.00 0.13 0.00 91 993.7
20260831102418 20 17 0.0 1.6 0.00 0.13 0.00 91 993.6
20260831102138 20 186 0.0 1.6 0.00 0.13 0.00 91 993.6
20260831101130 20 113 0.0 1.6 0.00 0.13 0.00 91 993.5
20260831100859 20 341 0.0 1.6 0.00 0.13 0.00 91 993.4
20260831100130 20 338 0.0 1.6 0.00 0.13 0.00 91 993.5
20260831095630 20 95 0.0 1.6 0.00 0.13 0.00 91 993.4
20260831095130 20 0 0.0 1.6 0.00 0.13 0.00 91 993.3
20260831094900 20 322 0.0 1.6 0.00 0.13 0.00 91 993.4
20260831094130 20 0 0.0 1.6 0.00 0.13 0.00 91 993.3
20260831093631 20 159 0.0 1.6 0.00 0.13 0.00 91 993.3
20260831093130 20 108 0.0 1.6 0.00 0.13 0.00 91 993.3
20260831092629 20 145 0.0 3.2 0.00 0.13 0.00 91 993.1
20260831092130 20 104 0.0 3.2 0.00 0.13 0.00 91 993.1
20260831091631 20 0 0.0 1.6 0.00 0.13 0.00 91 993.1
20260831091403 20 0 0.0 1.6 0.00 0.13 0.00 91 993.1
20260831090903 20 0 0.0 1.6 0.00 0.13 0.00 91 993.0
20260831090131 20 129 0.0 1.6 0.00 0.13 0.00 91 993.1
20260831085631 20 0 0.0 1.6 0.00 0.13 0.00 91 993.2
20260831085131 20 312 0.0 1.6 0.00 0.13 0.00 91 993.2
20260831084631 20 0 0.0 1.6 0.00 0.13 0.00 91 993.3
20260831084131 20 0 0.0 1.6 0.00 0.13 0.00 91 993.2
20260831083631 20 0 0.0 1.6 0.00 0.13 0.00 91 993.2
20260831083129 20 310 0.0 1.6 0.00 0.13 0.00 91 993.1
20260831082628 20 357 0.0 1.6 0.00 0.13 0.00 91 993.1
20260831082129 20 0 0.0 1.6 0.00 0.13 0.00 91 993.0
20260831081628 21 50 0.0 1.6 0.00 0.13 0.00 91 993.1
20260831081128 21 0 0.0 1.6 0.00 0.13 0.00 91 993.0
20260831080902 21 89 0.0 1.6 0.00 0.13 0.00 91 993.0
20260831080129 21 75 0.0 1.6 0.00 0.13 0.00 91 993.0
20260831075905 21 113 0.0 1.6 0.00 0.13 0.00 91 993.0
20260831075129 21 54 1.6 3.2 0.00 0.13 0.00 91 993.1
20260831074905 21 77 1.6 3.2 0.00 0.13 0.00 91 993.2
20260831074403 21 0 0.0 1.6 0.00 0.13 0.00 91 993.2
20260831073903 21 58 0.0 1.6 0.00 0.13 0.00 91 993.1
20260831073129 21 0 0.0 1.6 0.00 0.13 0.00 91 993.1
20260831072629 21 74 0.0 1.6 0.00 0.13 0.00 91 993.1
20260831072132 21 0 1.6 1.6 0.00 0.13 0.00 91 993.1
20260831071631 21 58 1.6 1.6 0.00 0.13 0.00 91 993.1
20260831071359 21 194 0.0 1.6 0.00 0.13 0.00 91 993.1
20260831070629 21 0 0.0 1.6 0.00 0.13 0.00 91 993.1
20260831070129 21 0 1.6 3.2 0.00 0.13 0.00 91 993.2
20260831065628 21 37 1.6 3.2 0.00 0.13 0.00 91 993.1
20260831065127 21 56 1.6 3.2 0.00 0.13 0.00 91 993.2
20260831064627 21 122 1.6 3.2 0.00 0.13 0.00 91 993.3
20260831064127 21 336 0.0 3.2 0.00 0.13 0.00 91 993.5
20260831063627 20 249 0.0 1.6 0.00 0.13 0.00 91 993.5
20260831063112 21 39 0.0 3.2 0.00 0.13 0.00 91 993.6
20260831062612 21 313 1.6 3.2 0.00 0.13 0.00 91 993.6
20260831062111 21 295 0.0 1.6 0.00 0.13 0.00 91 993.7
20260831061611 21 351 0.0 3.2 0.00 0.13 0.00 91 993.6
20260831061112 21 0 0.0 3.2 0.00 0.13 0.00 91 993.6
20260831060611 21 26 1.6 1.6 0.00 0.13 0.00 91 993.5
20260831060339 21 359 1.6 4.8 0.00 0.13 0.00 91 993.4
20260831055612 21 314 1.6 4.8 0.00 0.13 0.00 91 993.3
20260831055112 21 306 0.0 3.2 0.00 0.13 0.00 91 993.3
20260831054604 21 0 0.0 3.2 0.00 0.13 0.00 91 993.3
20260831054101 21 72 1.6 3.2 0.00 0.13 0.00 91 993.3
20260831053602 21 356 1.6 3.2 0.00 0.13 0.00 91 993.4
20260831053101 21 209 1.6 3.2 0.00 0.13 0.00 91 993.3
20260831052601 21 297 1.6 3.2 0.00 0.13 0.00 91 993.4
20260831052101 21 189 1.6 3.2 0.00 0.13 0.00 91 993.5
20260831051600 21 305 1.6 3.2 0.00 0.13 0.00 91 993.6
20260831051101 21 322 1.6 3.2 0.00 0.13 0.00 91 993.5
20260831050602 21 162 0.0 3.2 0.00 0.13 0.00 90 993.6
20260831045600 21 138 0.0 1.6 0.00 0.13 0.00 90 993.7
20260831045101 21 0 1.6 3.2 0.00 0.13 0.00 90 993.6
20260831044827 21 268 1.6 3.2 0.00 0.13 0.00 90 993.6
20260831044102 21 264 1.6 3.2 0.00 0.13 0.00 90 993.6
20260831043602 21 0 0.0 3.2 0.00 0.13 0.00 90 993.4
20260831043103 21 81 0.0 3.2 0.00 0.13 0.00 90 993.4
20260831042602 21 122 1.6 3.2 0.00 0.13 0.00 90 993.4
20260831042103 21 87 1.6 3.2 0.00 0.13 0.00 90 993.4
20260831041602 21 71 1.6 3.2 0.00 0.13 0.00 90 993.4
20260831041104 21 114 1.6 3.2 0.00 0.13 0.00 90 993.4
20260831040608 21 349 1.6 3.2 0.00 0.13 0.00 90 993.4
20260831040345 21 70 1.6 3.2 0.00 0.13 0.00 90 993.4
20260831035601 21 108 1.6 3.2 0.00 0.13 0.00 90 993.4
20260831035103 21 0 1.6 3.2 0.00 0.13 0.00 90 993.5
20260831034601 21 28 0.0 3.2 0.00 0.13 0.00 90 993.4
20260831034101 21 172 0.0 1.6 0.00 0.13 0.00 90 993.4
20260831033825 21 0 0.0 1.6 0.00 0.13 0.00 90 993.4
20260831033102 21 48 0.0 1.6 0.00 0.13 0.00 90 993.5
20260831032836 21 0 1.6 3.2 0.00 0.13 0.00 89 993.6
20260831032101 21 17 1.6 3.2 0.00 0.13 0.00 89 993.6
20260831031601 21 7 1.6 3.2 0.00 0.13 0.00 89 993.8
20260831031326 21 262 1.6 3.2 0.00 0.13 0.00 89 993.8
20260831030601 21 284 1.6 3.2 0.00 0.13 0.00 89 993.7
20260831025602 21 38 0.0 3.2 0.00 0.13 0.00 89 993.8
20260831025102 21 344 1.6 3.2 0.00 0.13 0.00 89 993.8
20260831024834 21 287 1.6 3.2 0.03 0.13 0.00 89 994.0
20260831024102 21 223 1.6 3.2 0.10 0.13 0.00 89 994.1
20260831023828 21 268 1.6 3.2 0.10 0.13 0.00 88 994.2
20260831023102 21 38 1.6 3.2 0.10 0.13 0.00 88 994.1
20260831022601 21 184 1.6 3.2 0.10 0.13 0.00 88 994.1
20260831022101 21 269 1.6 4.8 0.10 0.13 0.00 88 994.2
20260831021602 21 338 1.6 6.4 0.10 0.13 0.00 88 994.0
20260831021103 21 123 1.6 6.4 0.10 0.13 0.00 88 994.1
20260831020604 21 290 3.2 8.0 0.10 0.13 0.00 88 994.1
20260831015601 22 278 3.2 16.1 0.10 0.10 0.00 87 994.1
20260831015101 22 159 3.2 8.0 0.10 0.10 0.00 87 994.1
20260831014601 22 111 3.2 8.0 0.10 0.10 0.00 87 993.8
20260831014100 22 296 3.2 6.4 0.03 0.03 0.00 87 993.9
20260831013600 23 0 3.2 6.4 0.00 0.03 0.00 87 993.9
20260831013101 23 0 3.2 6.4 0.00 0.03 0.00 87 993.8
20260831012603 23 220 3.2 6.4 0.00 0.03 0.00 87 993.8
20260831012101 23 298 3.2 6.4 0.00 0.00 0.00 87 993.9
20260831011600 23 296 1.6 8.0 0.00 0.00 0.00 87 993.8
20260831011101 23 85 1.6 9.7 0.00 0.00 0.00 87 993.7
20260831010604 23 252 3.2 9.7 0.00 0.00 0.00 87 993.6
20260831010355 23 191 3.2 8.0 0.00 0.00 0.00 87 993.5
20260831005600 23 315 1.6 6.4 0.00 0.00 0.00 87 993.5
20260831005356 23 271 1.6 4.8 0.00 0.00 0.00 86 993.4
20260831004602 23 287 1.6 6.4 0.00 0.00 0.00 86 993.3
20260831004102 23 270 1.6 6.4 0.00 0.00 0.00 86 993.2
20260831003601 23 284 1.6 4.8 0.00 0.00 0.00 85 993.2
20260831003353 24 289 1.6 6.4 0.00 0.00 0.00 85 993.2
20260831002601 24 113 3.2 6.4 0.00 0.00 0.00 84 993.0
20260831002100 24 269 1.6 6.4 0.00 0.00 0.00 84 993.0
20260831001853 24 326 1.6 4.8 0.00 0.00 0.00 83 992.8
20260831001100 24 0 1.6 6.4 0.00 0.00 0.00 82 992.9
20260831000602 24 231 1.6 6.4 0.00 0.00 0.00 82 992.9
20260830235603 25 317 1.6 4.8 0.00 0.00 0.00 81 992.8
20260830235150 25 9 1.6 6.4 0.00 0.00 0.00 81 992.9
20260830235128 25 310 1.6 6.4 0.00 0.00 0.00 81 992.9
20260830234101 25 214 3.2 6.4 0.00 0.00 0.00 81 992.8
20260830233601 25 305 1.6 6.4 0.00 0.00 0.00 82 992.8
20260830233350 25 295 1.6 6.4 0.00 0.00 0.00 81 992.8
20260830232851 25 248 1.6 6.4 0.00 0.00 0.00 80 992.9
20260830232101 25 309 1.6 4.8 0.00 0.00 0.00 80 992.9